Overview Statistics Trail Chart Weather Telemetry Raw packets
 

This is the latest recevied weather packets stored in our database for station/object HB9FHL-13. If no packets are shown the sender has not sent any weather packets the latest 10 day(s).

<< 111 112 113 114 115 116 117 >>
Time Temp. Humidity Pressure Rain* Wind** Luminosity Snow
1787966802 17.78° C - 1018.1 hPa 0 mm - - -
1787966639 17.22° C - 1022.7 hPa 0 mm - - -
1787966502 17.22° C - 1022.7 hPa 0 mm - - -
1787966201 16.67° C - 1019.1 hPa 0 mm - - -
1787965901 17.22° C - 1019.6 hPa 0 mm - - -
1787965600 16.67° C - 1017.4 hPa 0 mm - - -
1787965298 16.67° C - 1018.2 hPa 0 mm - - -
1787964998 17.22° C - 1017.8 hPa 0 mm - - -
1787964698 16.67° C - 1019.5 hPa 0 mm - - -
1787964397 17.22° C - 1018.1 hPa 0 mm - - -
1787964132 17.78° C - 1021.1 hPa 0 mm - - -
1787964097 17.78° C - 1021.1 hPa 0 mm - - -
1787963796 17.78° C - 1017.8 hPa 0 mm - - -
1787963495 16.67° C - 1016.9 hPa 0 mm - - -
1787963195 17.22° C - 1023.1 hPa 0 mm - - -
1787962894 17.78° C - 1020.3 hPa 0 mm - - -
1787962594 17.22° C - 1022.3 hPa 0 mm - - -
1787962294 17.78° C - 1021.4 hPa 0 mm - - -
1787961990 16.67° C - 1019.1 hPa 0 mm - - -
1787961694 16.67° C - 1019.9 hPa 0 mm - - -
1787961393 16.67° C - 1017.9 hPa 0 mm - - -
1787961088 16.11° C - 1018.5 hPa 0 mm - - -
1787960788 17.22° C - 1021 hPa 0 mm - - -
1787960524 17.22° C - 1019.2 hPa 0 mm - - -
1787960487 17.22° C - 1019.2 hPa 0 mm - - -

* Rain since midnight (hover to see other rain measurements)
** Current wind speed in m/s (hover to see current wind gust speed)